This is the latest recevied weather packets stored in our database for station/object 9M4RBN-3. If no packets are shown the sender has not sent any weather packets the latest 10 day(s).
| Time | Temp. | Humidity | Pressure | Rain* | Wind** | Luminosity | Snow |
|---|---|---|---|---|---|---|---|
| 1777694792 | 26.67° C | 61% | 1016.6 hPa | - | - | - | - |
| 1777693892 | 26.67° C | 43% | 1016.7 hPa | - | - | - | - |
| 1777692992 | 27.22° C | 48% | 1016.7 hPa | - | - | - | - |
| 1777692092 | 28.33° C | 68% | 1016.8 hPa | - | - | - | - |
| 1777691192 | 28.33° C | 76% | 1016.9 hPa | - | - | - | - |
| 1777690291 | 27.78° C | 75% | 1016.9 hPa | - | - | - | - |
| 1777689393 | 27.78° C | 74% | 1016.6 hPa | - | - | - | - |
| 1777688493 | 27.78° C | 74% | 1016.6 hPa | - | - | - | - |
| 1777687593 | 27.22° C | 74% | 1016.4 hPa | - | - | - | - |
| 1777686693 | 27.22° C | 72% | 1016.3 hPa | - | - | - | - |
| 1777685793 | 26.67° C | 71% | 1016.1 hPa | - | - | - | - |
| 1777684893 | 26.67° C | 70% | 1016.2 hPa | - | - | - | - |
| 1777683993 | 26.67° C | 68% | 1015.9 hPa | - | - | - | - |
| 1777683093 | 26.11° C | 67% | 1015.7 hPa | - | - | - | - |
| 1777682193 | 25.56° C | 64% | 1015.5 hPa | - | - | - | - |
| 1777681293 | 25° C | 57% | 1015.3 hPa | - | - | - | - |
| 1777680392 | 25° C | 51% | 1015.2 hPa | - | - | - | - |
| 1777679492 | 25° C | 55% | 1015 hPa | - | - | - | - |
| 1777678592 | 25.56° C | 72% | 1014.8 hPa | - | - | - | - |
| 1777677692 | 25.56° C | 71% | 1014.7 hPa | - | - | - | - |
| 1777676792 | 25° C | 69% | 1014.4 hPa | - | - | - | - |
| 1777675892 | 24.44° C | 62% | 1014 hPa | - | - | - | - |
| 1777674992 | 25° C | 49% | 1013.8 hPa | - | - | - | - |
| 1777674093 | 25.56° C | 56% | 1013.8 hPa | - | - | - | - |
| 1777673192 | 25.56° C | 71% | 1013.7 hPa | - | - | - | - |
* Rain since midnight (hover to see other rain measurements)
** Current wind speed in m/s (hover to see current wind gust speed)